C/2011 J2 ( LINEAR )

Japanese version
Home page
Updated on April 13, 2013

---------------------------------------------------------------------

* Profile

Discovery Date May 4, 2011
Magnitude 19.7 mag
Discoverer Lincoln Laboratory Near-Earth Asteroid Research project

* Pictures

* Orbital Elements

Epoch 2013 Dec. 14.0 TT = JDT 2456640.5
T 2013 Dec. 25.29540 TT                                 MPC
q   3.4433375            (2000.0)            P               Q
z  -0.0001483      Peri.   85.29500     +0.07045779     +0.97005549
 +/-0.0000007      Node   163.94720     +0.16357626     -0.24109995
e   1.0005107      Incl.  122.79874     +0.98401144     -0.02937948
From 1565 observations 2011 Mar. 10-2013 Apr. 8, mean residual 0".5.

* Finding Charts

* Magnitudes Graph

        m1 = 5.0 + 5 log d + 10.0 log r

---------------------------------------------------------------------

The orbital elements are published on M.P.E.C. 2013-G31.
The charts are made with StellaNavigator Ver.8 (AstroArts).
The magnitudes graphs are made with Comet for Windows.

---------------------------------------------------------------------

Copyright(C) Seiichi Yoshida (comet@aerith.net). All rights reserved.